Voltar ao catálogo

STARLINK-31214

AtivoComunicaçõesVLEO
NORAD 58871·PAYLOAD·🇺🇸 United States

Lançado Jan 29, 2024 de Cape Canaveral Space Force Station

Loading…

Próximas Passagens (próximas 24 horas)

TLE

AtualizadoSource: CelesTrak SupGP

Época: Sep 14, 2026, 22:33 UTC

1 58871C 24019U   26257.94006944  .00028559  00000+0  10347-2 0  2575
2 58871  42.9991 259.8859 0001329 263.3026 272.3787 15.27553709    19

Acompanhe STARLINK-31214 em tempo real com AllMySat

Download on the App Store